Padova Airport LIPU

Flugplatz Daten

Name: Padova Airport

Ident: LIPU

Lat: 45,39580154

Long: 11,84790039

Platzhöhe: 44 ft

IataCode: QPA

City: Padova

Metar

2021/12/03 07:00
LIPU 030700Z VRB03KT 9999 BKN020 06/05 Q1009

Taf

Gewünschte Webcam nicht vorhanden? Dann fügen Sie eine hinzu. Sie wird dann so schnell wie möglich freigeschaltet
Url: Title: